User: anonymous   Login
Location: Voyageurs National Park
(48.5020°N, 92.9292°W)
Time: 02:31:34
(UTC-05:00)
Language:

Terra - Orbit

View from above orbital plane
View from above orbital plane
View from above satellite
View from above satellite

Ground track
Ground track

The orbit data is extracted from the following two-line orbital elements,

1 25994U 99068A   17230.76307334 -.00000190  00000-0 -32103-4 0  9992
2 25994  98.2048 304.9053 0000881  95.5549 264.5742 14.57106464939784
Epoch (UTC): 18 August 2017 18:18:49
Eccentricity: 0.0000881
inclination: 98.2048°
perigee height: 702 km
apogee height: 703 km
right ascension of ascending node: 304.9053°
argument of perigee: 95.5549°
revolutions per day: 14.57106464
mean anomaly at epoch: 264.5742°
orbit number at epoch: 93978

The dashed part of the orbit path shows where the satellite is in the earth's shadow,  

DLR